GW5805 Weather Reports


time (UTC)temp
F
wind
direction
speed
knots
gust
knots
rain 1hr
in
rain 24hr
in
rain mn
in
humidity
%
barometer
mb
20260505051637 62 128 1.7 2.6 0.00 0.00 0.00 46 1008.9
20260505051136 62 128 1.7 2.6 0.00 0.00 0.00 46 1008.9
20260505050633 62 154 1.7 1.7 0.00 0.00 0.00 46 1008.9
20260505050131 62 137 1.7 2.6 0.00 0.00 0.00 45 1008.7
20260505041503 59 148 0.9 0.9 0.00 0.00 0.00 46 1008.0
20260505041001 59 128 0.0 0.0 0.00 0.00 0.00 48 1007.8
20260505040457 58 128 0.0 0.9 0.00 0.00 0.00 47 1007.8
20260505035954 58 136 0.0 0.0 0.00 0.00 0.00 47 1007.3
20260505035450 58 136 0.0 0.0 0.00 0.00 0.00 47 1007.3
20260505034947 59 132 0.0 0.0 0.00 0.00 0.00 46 1007.3
20260505034444 59 132 0.0 0.0 0.00 0.00 0.00 46 1007.3
20260505033941 59 132 0.0 0.0 0.00 0.00 0.00 46 1007.5
20260505032427 62 130 0.0 0.0 0.00 0.00 0.00 43 1007.1
20260505031924 62 130 0.0 0.0 0.00 0.00 0.00 43 1007.1
20260505031421 62 130 0.0 0.0 0.00 0.00 0.00 43 1007.0
20260505030918 62 130 0.0 0.0 0.00 0.00 0.00 42 1007.0
20260505030413 62 134 0.0 0.0 0.00 0.00 0.00 43 1006.9
20260505025909 63 135 0.0 0.0 0.00 0.00 0.00 40 1006.9
20260505025407 63 135 0.0 0.0 0.00 0.00 0.00 39 1006.9
20260505024906 64 137 0.0 0.0 0.00 0.00 0.00 38 1006.9
20260505024403 64 135 0.0 0.0 0.00 0.00 0.00 38 1006.8
20260505023859 65 137 0.0 0.0 0.00 0.00 0.00 37 1006.5
20260505023356 65 139 0.0 0.0 0.00 0.00 0.00 37 1006.7
20260505022853 66 144 0.0 0.0 0.00 0.00 0.00 36 1006.5
20260505022350 66 133 0.0 0.0 0.00 0.00 0.00 36 1006.7
20260505021848 67 137 0.0 0.0 0.00 0.00 0.00 36 1006.7
20260505021344 67 138 0.0 0.0 0.00 0.00 0.00 35 1006.4
20260505020840 68 132 0.0 0.0 0.00 0.00 0.00 35 1006.4
20260505020336 68 137 0.0 0.0 0.00 0.00 0.00 34 1006.5
20260505015833 68 139 0.9 1.7 0.00 0.00 0.00 34 1006.4
20260505015330 69 136 0.0 0.9 0.00 0.00 0.00 33 1006.3
20260505014827 69 145 0.0 0.0 0.00 0.00 0.00 33 1006.4
20260505014324 69 134 0.0 0.0 0.00 0.00 0.00 33 1006.5
20260505013820 70 136 1.7 1.7 0.00 0.00 0.00 32 1006.2
20260505013318 70 170 0.9 1.7 0.00 0.00 0.00 34 1006.3
20260505012816 70 154 1.7 2.6 0.00 0.00 0.00 33 1006.3
20260505012314 71 160 0.0 1.7 0.00 0.00 0.00 34 1006.4
20260505011809 72 102 0.9 1.7 0.00 0.00 0.00 32 1006.4
20260505011307 73 158 1.7 3.5 0.00 0.00 0.00 31 1006.4
20260505010802 73 140 0.9 1.7 0.00 0.00 0.00 30 1006.4
20260505010258 74 133 2.6 2.6 0.00 0.00 0.00 30 1006.7
20260505005754 74 211 1.7 1.7 0.00 0.00 0.00 30 1006.5
20260505005252 74 143 0.0 0.9 0.00 0.00 0.00 31 1006.5
20260505004749 74 264 1.7 2.6 0.00 0.00 0.00 31 1006.4
20260505004245 75 263 0.9 2.6 0.00 0.00 0.00 31 1006.4
20260505003743 75 175 0.9 1.7 0.00 0.00 0.00 31 1006.5
20260505003240 75 204 1.7 2.6 0.00 0.00 0.00 29 1006.7
20260505002736 75 220 0.9 1.7 0.00 0.00 0.00 30 1006.8
20260505002234 75 189 1.7 1.7 0.00 0.00 0.00 32 1006.9
20260505001731 75 131 0.9 0.9 0.00 0.00 0.00 31 1006.9
20260505001229 74 167 0.9 0.9 0.00 0.00 0.00 32 1006.8
20260505000725 75 137 1.7 2.6 0.00 0.00 0.00 31 1006.9
20260505000226 75 221 2.6 3.5 0.00 0.00 0.00 31 1007.0
20260504235720 75 137 1.7 2.6 0.00 0.00 0.00 32 1006.8
20260504235216 75 124 2.6 3.5 0.00 0.00 0.00 33 1006.9
20260504234713 74 48 0.9 0.9 0.00 0.00 0.00 32 1006.8
20260504234210 75 188 2.6 3.5 0.00 0.00 0.00 31 1007.0
20260504233706 75 85 2.6 2.6 0.00 0.00 0.00 33 1007.0
20260504233202 74 134 0.9 0.9 0.00 0.00 0.00 34 1006.8
20260504232700 75 140 4.3 6.1 0.00 0.00 0.00 31 1007.0
20260504232157 75 146 2.6 3.5 0.00 0.00 0.00 33 1006.9
20260504231653 75 140 1.7 2.6 0.00 0.00 0.00 33 1006.7
20260504231150 74 159 3.5 5.2 0.00 0.00 0.00 33 1006.7
20260504230646 75 159 5.2 7.8 0.00 0.00 0.00 33 1006.9
20260504230145 76 126 3.5 5.2 0.00 0.00 0.00 32 1006.5
20260504225643 76 244 1.7 2.6 0.00 0.00 0.00 29 1006.9
20260504225138 76 183 3.5 5.2 0.00 0.00 0.00 26 1006.5
20260504224636 77 181 3.5 6.1 0.00 0.00 0.00 26 1006.7
20260504224132 79 149 0.9 0.9 0.00 0.00 0.00 27 1006.5
20260504223630 79 227 1.7 3.5 0.00 0.00 0.00 29 1006.9
20260504223125 78 182 1.7 1.7 0.00 0.00 0.00 26 1006.7
20260504222623 78 175 1.7 5.2 0.00 0.00 0.00 27 1006.9
20260504222120 79 132 0.9 1.7 0.00 0.00 0.00 26 1006.9
20260504221617 79 138 0.9 1.7 0.00 0.00 0.00 29 1006.8
20260504221114 79 138 1.7 1.7 0.00 0.00 0.00 26 1006.8
20260504220610 79 146 1.7 1.7 0.00 0.00 0.00 23 1007.0
20260504220108 79 214 0.9 1.7 0.00 0.00 0.00 28 1007.1
20260504215603 79 130 0.9 0.9 0.00 0.00 0.00 28 1007.0
20260504215101 79 196 1.7 2.6 0.00 0.00 0.00 27 1007.0
20260504214557 78 133 0.9 0.9 0.00 0.00 0.00 30 1007.3
20260504214053 77 139 0.0 0.9 0.00 0.00 0.00 30 1007.3
20260504213550 78 138 1.7 3.5 0.00 0.00 0.00 27 1007.3
20260504213047 78 152 0.9 0.9 0.00 0.00 0.00 30 1007.3
20260504212543 79 165 2.6 2.6 0.00 0.00 0.00 30 1007.7
20260504212040 78 133 1.7 1.7 0.00 0.00 0.00 27 1007.7
20260504211537 78 133 0.9 1.7 0.00 0.00 0.00 32 1007.8
20260504211034 79 34 1.7 2.6 0.00 0.00 0.00 29 1007.8
20260504210531 78 115 1.7 2.6 0.00 0.00 0.00 31 1007.8
20260504210028 78 143 0.0 0.9 0.00 0.00 0.00 32 1008.0
20260504205526 78 142 0.9 0.9 0.00 0.00 0.00 32 1008.0
20260504205023 78 215 1.7 2.6 0.00 0.00 0.00 31 1008.0
20260504204521 78 133 0.0 0.0 0.00 0.00 0.00 31 1008.1
20260504204020 78 119 0.9 1.7 0.00 0.00 0.00 25 1008.2
20260504203518 77 127 1.7 2.6 0.00 0.00 0.00 27 1008.1
20260504203015 77 128 1.7 1.7 0.00 0.00 0.00 33 1008.2
20260504202510 78 207 3.5 6.1 0.00 0.00 0.00 28 1008.4
20260504202007 78 121 1.7 1.7 0.00 0.00 0.00 32 1008.1
20260504201504 77 131 0.9 0.9 0.00 0.00 0.00 36 1008.2
20260504201002 77 148 0.9 0.9 0.00 0.00 0.00 29 1008.6
20260504200458 77 153 0.9 1.7 0.00 0.00 0.00 31 1008.5
20260504195955 77 148 3.5 3.5 0.00 0.00 0.00 32 1008.6
20260504195451 76 155 0.9 0.9 0.00 0.00 0.00 32 1008.5
20260504194948 76 121 1.7 1.7 0.00 0.00 0.00 31 1008.6
20260504194444 76 250 1.7 1.7 0.00 0.00 0.00 32 1008.6
20260504193940 76 113 0.9 0.9 0.00 0.00 0.00 33 1008.8
20260504193437 76 131 0.9 0.9 0.00 0.00 0.00 30 1008.9
20260504192936 76 136 0.0 0.0 0.00 0.00 0.00 34 1008.8
20260504192432 76 129 0.9 0.9 0.00 0.00 0.00 32 1009.0
20260504191932 76 292 0.9 1.7 0.00 0.00 0.00 33 1009.0
20260504191429 75 141 0.9 0.9 0.00 0.00 0.00 35 1009.2
20260504190924 76 232 2.6 3.5 0.00 0.00 0.00 31 1009.2
20260504190420 75 145 1.7 1.7 0.00 0.00 0.00 36 1009.2
20260504185917 76 138 2.6 2.6 0.00 0.00 0.00 33 1009.3
20260504185414 76 120 1.7 2.6 0.00 0.00 0.00 34 1009.4
20260504184910 75 154 0.0 0.0 0.00 0.00 0.00 35 1009.3
20260504184406 76 164 1.7 1.7 0.00 0.00 0.00 34 1009.4
20260504183902 75 145 0.9 1.7 0.00 0.00 0.00 35 1009.5
20260504183400 75 136 0.9 0.9 0.00 0.00 0.00 32 1009.7
20260504182857 75 136 0.0 0.0 0.00 0.00 0.00 34 1009.7
20260504182354 76 140 2.6 3.5 0.00 0.00 0.00 32 1009.7
20260504181851 76 134 0.9 0.9 0.00 0.00 0.00 31 1009.7
20260504181348 77 146 1.7 1.7 0.00 0.00 0.00 35 1009.8
20260504180847 77 143 0.0 0.9 0.00 0.00 0.00 37 1009.8
20260504180345 76 145 0.9 0.9 0.00 0.00 0.00 34 1010.1
20260504175843 76 165 2.6 2.6 0.00 0.00 0.00 31 1010.1
20260504175339 75 134 0.9 0.9 0.00 0.00 0.00 40 1010.1
20260504174838 75 138 0.0 0.0 0.00 0.00 0.00 36 1010.1
20260504174335 75 129 0.0 0.9 0.00 0.00 0.00 32 1010.2
20260504173832 75 197 1.7 1.7 0.00 0.00 0.00 36 1010.0
20260504173329 74 138 0.0 0.0 0.00 0.00 0.00 34 1010.3
20260504172826 73 139 3.5 5.2 0.00 0.00 0.00 32 1010.1
20260504172322 73 173 1.7 2.6 0.00 0.00 0.00 32 1010.3
20260504171818 74 121 1.7 2.6 0.00 0.00 0.00 33 1010.1
20260504171315 75 173 2.6 2.6 0.00 0.00 0.00 33 1010.2
20260504170813 74 153 0.9 0.9 0.00 0.00 0.00 36 1010.3
20260504170309 74 129 0.9 0.9 0.00 0.00 0.00 37 1010.2
20260504160227 71 143 0.9 0.9 0.00 0.00 0.00 37 1010.5
20260504150653 68 135 0.9 0.9 0.00 0.00 0.00 36 1010.6
20260504150150 67 137 0.0 0.0 0.00 0.00 0.00 40 1010.6
20260504141119 57 143 0.0 0.0 0.00 0.00 0.00 52 1010.9
20260504140615 56 134 0.0 0.0 0.00 0.00 0.00 52 1010.9
20260504140111 56 132 0.0 0.0 0.00 0.00 0.00 52 1010.7
20260504130539 48 132 0.0 0.0 0.00 0.00 0.00 57 1010.6
20260504110427 52 137 0.0 0.0 0.00 0.00 0.00 45 1011.0
20260504100344 49 130 0.0 0.0 0.00 0.00 0.00 56 1010.6
20260504081737 51 138 0.0 0.0 0.00 0.00 0.00 56 1009.5
20260504081233 52 130 0.0 0.0 0.00 0.00 0.00 55 1009.7
20260504080730 53 133 0.0 0.9 0.00 0.00 0.00 54 1010.0
20260504080226 52 125 0.0 0.0 0.00 0.00 0.00 55 1009.6
20260504070153 58 125 1.7 2.6 0.00 0.00 0.00 37 1009.6
20260504060114 56 137 0.0 0.0 0.00 0.00 0.00 31 1009.8